This is the latest recevied weather packets stored in our database for station/object CA3EVY-3. If no packets are shown the sender has not sent any weather packets the latest 10 day(s).
| Time | Temp. | Humidity | Pressure | Rain* | Wind** | Luminosity | Snow |
|---|---|---|---|---|---|---|---|
| 1777959903 | 15.56° C | 44% | 917.1 hPa | - | - | - | - |
| 1777959006 | 16.11° C | 44% | 917 hPa | - | - | - | - |
| 1777958104 | 16.11° C | 44% | 917.3 hPa | - | - | - | - |
| 1777957203 | 16.11° C | 44% | 917.2 hPa | - | - | - | - |
| 1777956303 | 16.11° C | 44% | 917.2 hPa | - | - | - | - |
| 1777955404 | 16.11° C | 43% | 917.1 hPa | - | - | - | - |
| 1777954504 | 16.11° C | 43% | 917.1 hPa | - | - | - | - |
| 1777953605 | 16.11° C | 41% | 917 hPa | - | - | - | - |
| 1777952706 | 16.11° C | 41% | 916.8 hPa | - | - | - | - |
| 1777951803 | 16.67° C | 42% | 917.1 hPa | - | - | - | - |
| 1777950903 | 16.67° C | 42% | 917.4 hPa | - | - | - | - |
| 1777950004 | 16.67° C | 40% | 917.6 hPa | - | - | - | - |
| 1777949104 | 17.22° C | 40% | 917.5 hPa | - | - | - | - |
| 1777948204 | 17.22° C | 40% | 917.5 hPa | - | - | - | - |
| 1777947303 | 17.22° C | 40% | 917.3 hPa | - | - | - | - |
| 1777946404 | 17.22° C | 40% | 917.3 hPa | - | - | - | - |
| 1777945504 | 16.67° C | 40% | 917.1 hPa | - | - | - | - |
| 1777944604 | 16.11° C | 40% | 917 hPa | - | - | - | - |
| 1777943704 | 16.11° C | 40% | 917 hPa | - | - | - | - |
| 1777942803 | 16.67° C | 40% | 917 hPa | - | - | - | - |
| 1777941904 | 16.67° C | 40% | 917.1 hPa | - | - | - | - |
| 1777941003 | 17.22° C | 39% | 917.1 hPa | - | - | - | - |
| 1777940104 | 17.22° C | 39% | 917.1 hPa | - | - | - | - |
| 1777939204 | 17.22° C | 38% | 917 hPa | - | - | - | - |
| 1777938303 | 17.22° C | 38% | 916.9 hPa | - | - | - | - |
* Rain since midnight (hover to see other rain measurements)
** Current wind speed in m/s (hover to see current wind gust speed)